owner,sensor,date,latitude,longitude,air_temperature,qcFlag 
WAVCIS,ioos:station:WAVCIS:CSI15:1,2009-07-01T00:00:00Z,28.8332,-90.8320,34.11,11111222 
WAVCIS,ioos:station:WAVCIS:CSI15:1,2009-07-01T01:00:00Z,28.8332,-90.8320,33.49,11111222 
WAVCIS,ioos:station:WAVCIS:CSI15:1,2009-07-01T02:00:00Z,28.8332,-90.8320,33.33,11111222 
WAVCIS,ioos:station:WAVCIS:CSI15:1,2009-07-01T03:00:00Z,28.8332,-90.8320,33.32,11111222 
WAVCIS,ioos:station:WAVCIS:CSI15:1,2009-07-01T04:00:00Z,28.8332,-90.8320,33.36,11111222 
WAVCIS,ioos:station:WAVCIS:CSI15:1,2009-07-01T05:00:00Z,28.8332,-90.8320,33.76,11111222 
WAVCIS,ioos:station:WAVCIS:CSI15:1,2009-07-01T06:00:00Z,28.8332,-90.8320,37.97,11111222 
WAVCIS,ioos:station:WAVCIS:CSI15:1,2009-07-01T07:00:00Z,28.8332,-90.8320,37.08,11111222 
WAVCIS,ioos:station:WAVCIS:CSI15:1,2009-07-01T08:00:00Z,28.8332,-90.8320,37.01,11111222 
WAVCIS,ioos:station:WAVCIS:CSI15:1,2009-07-01T09:00:00Z,28.8332,-90.8320,37.32,11111222 
WAVCIS,ioos:station:WAVCIS:CSI15:1,2009-07-01T10:00:00Z,28.8332,-90.8320,37.62,11111222 
WAVCIS,ioos:station:WAVCIS:CSI15:1,2009-07-01T11:00:00Z,28.8332,-90.8320,34.06,11111222 
WAVCIS,ioos:station:WAVCIS:CSI15:1,2009-07-01T12:00:00Z,28.8332,-90.8320,33.89,11111222 
WAVCIS,ioos:station:WAVCIS:CSI15:1,2009-07-01T13:00:00Z,28.8332,-90.8320,34.51,11111222 
WAVCIS,ioos:station:WAVCIS:CSI15:1,2009-07-01T14:00:00Z,28.8332,-90.8320,35.74,11111222 
WAVCIS,ioos:station:WAVCIS:CSI15:1,2009-07-01T15:00:00Z,28.8332,-90.8320,33.5,11111222 
WAVCIS,ioos:station:WAVCIS:CSI15:1,2009-07-01T16:00:00Z,28.8332,-90.8320,33.09,11111222 
WAVCIS,ioos:station:WAVCIS:CSI15:1,2009-07-01T17:00:00Z,28.8332,-90.8320,33.62,11111222 
WAVCIS,ioos:station:WAVCIS:CSI15:1,2009-07-01T18:00:00Z,28.8332,-90.8320,34.55,11111222 
WAVCIS,ioos:station:WAVCIS:CSI15:1,2009-07-01T19:00:00Z,28.8332,-90.8320,39.66,11111222 
WAVCIS,ioos:station:WAVCIS:CSI15:1,2009-07-01T20:00:00Z,28.8332,-90.8320,38.01,11111222 
WAVCIS,ioos:station:WAVCIS:CSI15:1,2009-07-01T21:00:00Z,28.8332,-90.8320,36.97,11111222 
WAVCIS,ioos:station:WAVCIS:CSI15:1,2009-07-01T22:00:00Z,28.8332,-90.8320,36.19,11111222 
WAVCIS,ioos:station:WAVCIS:CSI15:1,2009-07-01T23:00:00Z,28.8332,-90.8320,36.56,11111222 
WAVCIS,ioos:station:WAVCIS:CSI15:1,2009-07-02T00:00:00Z,28.8332,-90.8320,36.86,11111222 
WAVCIS,ioos:station:WAVCIS:CSI15:1,2009-07-02T01:00:00Z,28.8332,-90.8320,36.02,11111222 
WAVCIS,ioos:station:WAVCIS:CSI15:1,2009-07-02T02:00:00Z,28.8332,-90.8320,35.5,11111222 
WAVCIS,ioos:station:WAVCIS:CSI15:1,2009-07-02T03:00:00Z,28.8332,-90.8320,35.63,11111222 
WAVCIS,ioos:station:WAVCIS:CSI15:1,2009-07-02T04:00:00Z,28.8332,-90.8320,35.46,11111222 
WAVCIS,ioos:station:WAVCIS:CSI15:1,2009-07-02T05:00:00Z,28.8332,-90.8320,35.46,11111222 
WAVCIS,ioos:station:WAVCIS:CSI15:1,2009-07-02T06:00:00Z,28.8332,-90.8320,35.4,11111222 
WAVCIS,ioos:station:WAVCIS:CSI15:1,2009-07-02T07:00:00Z,28.8332,-90.8320,35.28,11111222 
WAVCIS,ioos:station:WAVCIS:CSI15:1,2009-07-02T08:00:00Z,28.8332,-90.8320,35.51,11111222 
WAVCIS,ioos:station:WAVCIS:CSI15:1,2009-07-02T09:00:00Z,28.8332,-90.8320,34.97,11111222 
WAVCIS,ioos:station:WAVCIS:CSI15:1,2009-07-02T10:00:00Z,28.8332,-90.8320,37.44,11111222 
WAVCIS,ioos:station:WAVCIS:CSI15:1,2009-07-02T11:00:00Z,28.8332,-90.8320,41.75,11111222 
WAVCIS,ioos:station:WAVCIS:CSI15:1,2009-07-02T12:00:00Z,28.8332,-90.8320,36.48,11111222 
WAVCIS,ioos:station:WAVCIS:CSI15:1,2009-07-02T13:00:00Z,28.8332,-90.8320,36.86,11111222 
WAVCIS,ioos:station:WAVCIS:CSI15:1,2009-07-02T14:00:00Z,28.8332,-90.8320,39.81,11111222 
WAVCIS,ioos:station:WAVCIS:CSI15:1,2009-07-02T15:00:00Z,28.8332,-90.8320,37.87,11111222 
WAVCIS,ioos:station:WAVCIS:CSI15:1,2009-07-02T16:00:00Z,28.8332,-90.8320,39.55,11111222 
WAVCIS,ioos:station:WAVCIS:CSI15:1,2009-07-02T17:00:00Z,28.8332,-90.8320,44.16,11133222 
WAVCIS,ioos:station:WAVCIS:CSI15:1,2009-07-02T18:00:00Z,28.8332,-90.8320,43.31,11133222 
WAVCIS,ioos:station:WAVCIS:CSI15:1,2009-07-02T19:00:00Z,28.8332,-90.8320,40.54,11111222 
WAVCIS,ioos:station:WAVCIS:CSI15:1,2009-07-02T20:00:00Z,28.8332,-90.8320,36.76,11111222 
WAVCIS,ioos:station:WAVCIS:CSI15:1,2009-07-02T21:00:00Z,28.8332,-90.8320,35.06,11111222 
WAVCIS,ioos:station:WAVCIS:CSI15:1,2009-07-02T22:00:00Z,28.8332,-90.8320,35.91,11111222 
WAVCIS,ioos:station:WAVCIS:CSI15:1,2009-07-02T23:00:00Z,28.8332,-90.8320,33.87,11111222 
WAVCIS,ioos:station:WAVCIS:CSI15:1,2009-07-03T00:00:00Z,28.8332,-90.8320,34.35,11111222 
WAVCIS,ioos:station:WAVCIS:CSI15:1,2009-07-03T01:00:00Z,28.8332,-90.8320,33.63,11111222 
WAVCIS,ioos:station:WAVCIS:CSI15:1,2009-07-03T02:00:00Z,28.8332,-90.8320,34.74,11111222 
WAVCIS,ioos:station:WAVCIS:CSI15:1,2009-07-03T03:00:00Z,28.8332,-90.8320,38.27,11111222 
WAVCIS,ioos:station:WAVCIS:CSI15:1,2009-07-03T04:00:00Z,28.8332,-90.8320,40.85,11111222 
WAVCIS,ioos:station:WAVCIS:CSI15:1,2009-07-03T05:00:00Z,28.8332,-90.8320,38.22,11111222 
WAVCIS,ioos:station:WAVCIS:CSI15:1,2009-07-03T06:00:00Z,28.8332,-90.8320,40.62,11111222 
WAVCIS,ioos:station:WAVCIS:CSI15:1,2009-07-03T07:00:00Z,28.8332,-90.8320,38.23,11111222 
WAVCIS,ioos:station:WAVCIS:CSI15:1,2009-07-03T08:00:00Z,28.8332,-90.8320,38.82,11111222 
WAVCIS,ioos:station:WAVCIS:CSI15:1,2009-07-03T09:00:00Z,28.8332,-90.8320,38.97,11111222 
WAVCIS,ioos:station:WAVCIS:CSI15:1,2009-07-03T10:00:00Z,28.8332,-90.8320,38.77,11111222 
WAVCIS,ioos:station:WAVCIS:CSI15:1,2009-07-03T11:00:00Z,28.8332,-90.8320,38.86,11111222 
WAVCIS,ioos:station:WAVCIS:CSI15:1,2009-07-03T12:00:00Z,28.8332,-90.8320,37.53,11111222 
WAVCIS,ioos:station:WAVCIS:CSI15:1,2009-07-03T13:00:00Z,28.8332,-90.8320,38.45,11111222 
WAVCIS,ioos:station:WAVCIS:CSI15:1,2009-07-03T14:00:00Z,28.8332,-90.8320,37.63,11111222 
WAVCIS,ioos:station:WAVCIS:CSI15:1,2009-07-03T15:00:00Z,28.8332,-90.8320,37.37,11111222 
WAVCIS,ioos:station:WAVCIS:CSI15:1,2009-07-03T16:00:00Z,28.8332,-90.8320,38.02,11111222 
WAVCIS,ioos:station:WAVCIS:CSI15:1,2009-07-03T17:00:00Z,28.8332,-90.8320,37.53,11111222 
WAVCIS,ioos:station:WAVCIS:CSI15:1,2009-07-03T18:00:00Z,28.8332,-90.8320,37.33,11111222 
WAVCIS,ioos:station:WAVCIS:CSI15:1,2009-07-03T19:00:00Z,28.8332,-90.8320,37.7,11111222 
WAVCIS,ioos:station:WAVCIS:CSI15:1,2009-07-03T20:00:00Z,28.8332,-90.8320,38.66,11111222 
WAVCIS,ioos:station:WAVCIS:CSI15:1,2009-07-03T21:00:00Z,28.8332,-90.8320,41.14,11111222 
WAVCIS,ioos:station:WAVCIS:CSI15:1,2009-07-03T22:00:00Z,28.8332,-90.8320,38.5,11111222 
WAVCIS,ioos:station:WAVCIS:CSI15:1,2009-07-03T23:00:00Z,28.8332,-90.8320,38.3,11111222 
WAVCIS,ioos:station:WAVCIS:CSI15:1,2009-07-04T00:00:00Z,28.8332,-90.8320,38.28,11111222 
WAVCIS,ioos:station:WAVCIS:CSI15:1,2009-07-04T01:00:00Z,28.8332,-90.8320,38.82,11111222 
WAVCIS,ioos:station:WAVCIS:CSI15:1,2009-07-04T02:00:00Z,28.8332,-90.8320,42.39,11133222 
WAVCIS,ioos:station:WAVCIS:CSI15:1,2009-07-04T03:00:00Z,28.8332,-90.8320,39.86,11111222 
WAVCIS,ioos:station:WAVCIS:CSI15:1,2009-07-04T04:00:00Z,28.8332,-90.8320,38.69,11111222 
WAVCIS,ioos:station:WAVCIS:CSI15:1,2009-07-04T05:00:00Z,28.8332,-90.8320,42.32,11133222 
WAVCIS,ioos:station:WAVCIS:CSI15:1,2009-07-04T06:00:00Z,28.8332,-90.8320,36.61,11111222 
WAVCIS,ioos:station:WAVCIS:CSI15:1,2009-07-04T07:00:00Z,28.8332,-90.8320,36.41,11111222 
WAVCIS,ioos:station:WAVCIS:CSI15:1,2009-07-04T08:00:00Z,28.8332,-90.8320,36.73,11111222 
WAVCIS,ioos:station:WAVCIS:CSI15:1,2009-07-04T09:00:00Z,28.8332,-90.8320,42.47,11133222 
WAVCIS,ioos:station:WAVCIS:CSI15:1,2009-07-04T10:00:00Z,28.8332,-90.8320,38.46,11111222 
WAVCIS,ioos:station:WAVCIS:CSI15:1,2009-07-04T11:00:00Z,28.8332,-90.8320,35.53,11111222 
WAVCIS,ioos:station:WAVCIS:CSI15:1,2009-07-04T12:00:00Z,28.8332,-90.8320,40.76,11111222 
WAVCIS,ioos:station:WAVCIS:CSI15:1,2009-07-04T13:00:00Z,28.8332,-90.8320,40.88,11111222 
WAVCIS,ioos:station:WAVCIS:CSI15:1,2009-07-04T14:00:00Z,28.8332,-90.8320,43.72,11133222 
WAVCIS,ioos:station:WAVCIS:CSI15:1,2009-07-04T15:00:00Z,28.8332,-90.8320,43.68,11133222 
WAVCIS,ioos:station:WAVCIS:CSI15:1,2009-07-04T16:00:00Z,28.8332,-90.8320,40.62,11111222 
WAVCIS,ioos:station:WAVCIS:CSI15:1,2009-07-04T17:00:00Z,28.8332,-90.8320,37.88,11111222 
WAVCIS,ioos:station:WAVCIS:CSI15:1,2009-07-04T18:00:00Z,28.8332,-90.8320,36.88,11111222 
WAVCIS,ioos:station:WAVCIS:CSI15:1,2009-07-04T19:00:00Z,28.8332,-90.8320,36.47,11111222 
WAVCIS,ioos:station:WAVCIS:CSI15:1,2009-07-04T20:00:00Z,28.8332,-90.8320,36.77,11111222 
WAVCIS,ioos:station:WAVCIS:CSI15:1,2009-07-04T21:00:00Z,28.8332,-90.8320,36.89,11111222 
WAVCIS,ioos:station:WAVCIS:CSI15:1,2009-07-04T22:00:00Z,28.8332,-90.8320,38.88,11111222 
WAVCIS,ioos:station:WAVCIS:CSI15:1,2009-07-04T23:00:00Z,28.8332,-90.8320,36.55,11111222 
WAVCIS,ioos:station:WAVCIS:CSI15:1,2009-07-05T00:00:00Z,28.8332,-90.8320,36.81,11111222 
WAVCIS,ioos:station:WAVCIS:CSI15:1,2009-07-05T01:00:00Z,28.8332,-90.8320,36.13,11111222 
WAVCIS,ioos:station:WAVCIS:CSI15:1,2009-07-05T02:00:00Z,28.8332,-90.8320,36.1,11111222 
WAVCIS,ioos:station:WAVCIS:CSI15:1,2009-07-05T03:00:00Z,28.8332,-90.8320,36.0,11111222 
WAVCIS,ioos:station:WAVCIS:CSI15:1,2009-07-05T04:00:00Z,28.8332,-90.8320,44.62,11133222 
WAVCIS,ioos:station:WAVCIS:CSI15:1,2009-07-05T05:00:00Z,28.8332,-90.8320,44.9,11133222 
WAVCIS,ioos:station:WAVCIS:CSI15:1,2009-07-05T06:00:00Z,28.8332,-90.8320,35.74,11111222 
WAVCIS,ioos:station:WAVCIS:CSI15:1,2009-07-05T07:00:00Z,28.8332,-90.8320,36.62,11111222 
WAVCIS,ioos:station:WAVCIS:CSI15:1,2009-07-05T08:00:00Z,28.8332,-90.8320,36.36,11111222 
WAVCIS,ioos:station:WAVCIS:CSI15:1,2009-07-05T09:00:00Z,28.8332,-90.8320,38.56,11111222 
WAVCIS,ioos:station:WAVCIS:CSI15:1,2009-07-05T10:00:00Z,28.8332,-90.8320,39.65,11111222 
WAVCIS,ioos:station:WAVCIS:CSI15:1,2009-07-05T11:00:00Z,28.8332,-90.8320,36.53,11111222 
WAVCIS,ioos:station:WAVCIS:CSI15:1,2009-07-05T12:00:00Z,28.8332,-90.8320,36.55,11111222 
WAVCIS,ioos:station:WAVCIS:CSI15:1,2009-07-05T13:00:00Z,28.8332,-90.8320,36.76,11111222 
WAVCIS,ioos:station:WAVCIS:CSI15:1,2009-07-05T14:00:00Z,28.8332,-90.8320,44.1,11133222 
WAVCIS,ioos:station:WAVCIS:CSI15:1,2009-07-05T15:00:00Z,28.8332,-90.8320,35.96,11111222 
WAVCIS,ioos:station:WAVCIS:CSI15:1,2009-07-05T16:00:00Z,28.8332,-90.8320,36.6,11111222 
WAVCIS,ioos:station:WAVCIS:CSI15:1,2009-07-05T17:00:00Z,28.8332,-90.8320,40.86,11111222 
WAVCIS,ioos:station:WAVCIS:CSI15:1,2009-07-05T18:00:00Z,28.8332,-90.8320,36.02,11111222 
WAVCIS,ioos:station:WAVCIS:CSI15:1,2009-07-05T19:00:00Z,28.8332,-90.8320,36.54,11111222 
WAVCIS,ioos:station:WAVCIS:CSI15:1,2009-07-05T20:00:00Z,28.8332,-90.8320,43.47,11133222 
WAVCIS,ioos:station:WAVCIS:CSI15:1,2009-07-05T21:00:00Z,28.8332,-90.8320,36.89,11111222 
WAVCIS,ioos:station:WAVCIS:CSI15:1,2009-07-05T22:00:00Z,28.8332,-90.8320,39.05,11111222 
WAVCIS,ioos:station:WAVCIS:CSI15:1,2009-07-05T23:00:00Z,28.8332,-90.8320,36.37,11111222 
WAVCIS,ioos:station:WAVCIS:CSI15:1,2009-07-06T00:00:00Z,28.8332,-90.8320,38.15,11111222 
WAVCIS,ioos:station:WAVCIS:CSI15:1,2009-07-06T01:00:00Z,28.8332,-90.8320,37.59,11111222 
WAVCIS,ioos:station:WAVCIS:CSI15:1,2009-07-06T02:00:00Z,28.8332,-90.8320,35.6,11111222 
WAVCIS,ioos:station:WAVCIS:CSI15:1,2009-07-06T03:00:00Z,28.8332,-90.8320,35.62,11111222 
WAVCIS,ioos:station:WAVCIS:CSI15:1,2009-07-06T04:00:00Z,28.8332,-90.8320,36.05,11111222 
WAVCIS,ioos:station:WAVCIS:CSI15:1,2009-07-06T05:00:00Z,28.8332,-90.8320,38.12,11111222 
WAVCIS,ioos:station:WAVCIS:CSI15:1,2009-07-06T06:00:00Z,28.8332,-90.8320,38.51,11111222 
WAVCIS,ioos:station:WAVCIS:CSI15:1,2009-07-06T07:00:00Z,28.8332,-90.8320,43.19,11133222 
WAVCIS,ioos:station:WAVCIS:CSI15:1,2009-07-06T08:00:00Z,28.8332,-90.8320,36.56,11111222 
WAVCIS,ioos:station:WAVCIS:CSI15:1,2009-07-06T09:00:00Z,28.8332,-90.8320,35.63,11111222 
WAVCIS,ioos:station:WAVCIS:CSI15:1,2009-07-06T10:00:00Z,28.8332,-90.8320,36.25,11111222 
WAVCIS,ioos:station:WAVCIS:CSI15:1,2009-07-06T11:00:00Z,28.8332,-90.8320,37.78,11111222 
WAVCIS,ioos:station:WAVCIS:CSI15:1,2009-07-06T12:00:00Z,28.8332,-90.8320,36.93,11111222 
WAVCIS,ioos:station:WAVCIS:CSI15:1,2009-07-06T13:00:00Z,28.8332,-90.8320,38.03,11111222 
WAVCIS,ioos:station:WAVCIS:CSI15:1,2009-07-06T14:00:00Z,28.8332,-90.8320,36.75,11111222 
WAVCIS,ioos:station:WAVCIS:CSI15:1,2009-07-06T15:00:00Z,28.8332,-90.8320,36.46,11111222 
WAVCIS,ioos:station:WAVCIS:CSI15:1,2009-07-06T16:00:00Z,28.8332,-90.8320,36.29,11111222 
WAVCIS,ioos:station:WAVCIS:CSI15:1,2009-07-06T17:00:00Z,28.8332,-90.8320,36.98,11111222 
WAVCIS,ioos:station:WAVCIS:CSI15:1,2009-07-06T18:00:00Z,28.8332,-90.8320,37.02,11111222 
WAVCIS,ioos:station:WAVCIS:CSI15:1,2009-07-06T19:00:00Z,28.8332,-90.8320,37.38,11111222 
WAVCIS,ioos:station:WAVCIS:CSI15:1,2009-07-06T20:00:00Z,28.8332,-90.8320,37.25,11111222 
WAVCIS,ioos:station:WAVCIS:CSI15:1,2009-07-06T21:00:00Z,28.8332,-90.8320,37.46,11111222 
WAVCIS,ioos:station:WAVCIS:CSI15:1,2009-07-06T22:00:00Z,28.8332,-90.8320,37.14,11111222 
WAVCIS,ioos:station:WAVCIS:CSI15:1,2009-07-06T23:00:00Z,28.8332,-90.8320,37.45,11111222 
WAVCIS,ioos:station:WAVCIS:CSI15:1,2009-07-07T00:00:00Z,28.8332,-90.8320,36.59,11111222 
WAVCIS,ioos:station:WAVCIS:CSI15:1,2009-07-07T01:00:00Z,28.8332,-90.8320,36.94,11111222 
WAVCIS,ioos:station:WAVCIS:CSI15:1,2009-07-07T02:00:00Z,28.8332,-90.8320,41.3,11111222 
WAVCIS,ioos:station:WAVCIS:CSI15:1,2009-07-07T03:00:00Z,28.8332,-90.8320,41.92,11111222 
WAVCIS,ioos:station:WAVCIS:CSI15:1,2009-07-07T04:00:00Z,28.8332,-90.8320,38.28,11111222 
WAVCIS,ioos:station:WAVCIS:CSI15:1,2009-07-07T05:00:00Z,28.8332,-90.8320,37.45,11111222 
WAVCIS,ioos:station:WAVCIS:CSI15:1,2009-07-07T06:00:00Z,28.8332,-90.8320,37.56,11111222 
WAVCIS,ioos:station:WAVCIS:CSI15:1,2009-07-07T07:00:00Z,28.8332,-90.8320,37.1,11111222 
WAVCIS,ioos:station:WAVCIS:CSI15:1,2009-07-07T08:00:00Z,28.8332,-90.8320,37.68,11111222 
WAVCIS,ioos:station:WAVCIS:CSI15:1,2009-07-07T09:00:00Z,28.8332,-90.8320,37.91,11111222 
WAVCIS,ioos:station:WAVCIS:CSI15:1,2009-07-07T10:00:00Z,28.8332,-90.8320,36.34,11111222 
WAVCIS,ioos:station:WAVCIS:CSI15:1,2009-07-07T11:00:00Z,28.8332,-90.8320,36.47,11111222 
WAVCIS,ioos:station:WAVCIS:CSI15:1,2009-07-07T12:00:00Z,28.8332,-90.8320,36.22,11111222 
WAVCIS,ioos:station:WAVCIS:CSI15:1,2009-07-07T13:00:00Z,28.8332,-90.8320,36.7,11111222 
WAVCIS,ioos:station:WAVCIS:CSI15:1,2009-07-07T14:00:00Z,28.8332,-90.8320,36.65,11111222 
WAVCIS,ioos:station:WAVCIS:CSI15:1,2009-07-07T15:00:00Z,28.8332,-90.8320,37.27,11111222 
WAVCIS,ioos:station:WAVCIS:CSI15:1,2009-07-07T16:00:00Z,28.8332,-90.8320,36.51,11111222 
WAVCIS,ioos:station:WAVCIS:CSI15:1,2009-07-07T17:00:00Z,28.8332,-90.8320,37.27,11111222 
WAVCIS,ioos:station:WAVCIS:CSI15:1,2009-07-07T18:00:00Z,28.8332,-90.8320,37.52,11111222 
WAVCIS,ioos:station:WAVCIS:CSI15:1,2009-07-07T19:00:00Z,28.8332,-90.8320,36.4,11111222 
WAVCIS,ioos:station:WAVCIS:CSI15:1,2009-07-07T20:00:00Z,28.8332,-90.8320,33.39,11111222 
WAVCIS,ioos:station:WAVCIS:CSI15:1,2009-07-07T21:00:00Z,28.8332,-90.8320,33.36,11111222 
WAVCIS,ioos:station:WAVCIS:CSI15:1,2009-07-07T22:00:00Z,28.8332,-90.8320,35.21,11111222 
WAVCIS,ioos:station:WAVCIS:CSI15:1,2009-07-07T23:00:00Z,28.8332,-90.8320,35.38,11111222 
WAVCIS,ioos:station:WAVCIS:CSI15:1,2009-07-08T00:00:00Z,28.8332,-90.8320,34.18,11111222 
WAVCIS,ioos:station:WAVCIS:CSI15:1,2009-07-08T01:00:00Z,28.8332,-90.8320,36.24,11111222 
WAVCIS,ioos:station:WAVCIS:CSI15:1,2009-07-08T02:00:00Z,28.8332,-90.8320,34.92,11111222 
WAVCIS,ioos:station:WAVCIS:CSI15:1,2009-07-08T03:00:00Z,28.8332,-90.8320,34.55,11111222 
WAVCIS,ioos:station:WAVCIS:CSI15:1,2009-07-08T04:00:00Z,28.8332,-90.8320,34.55,11111222 
WAVCIS,ioos:station:WAVCIS:CSI15:1,2009-07-08T05:00:00Z,28.8332,-90.8320,35.16,11111222 
WAVCIS,ioos:station:WAVCIS:CSI15:1,2009-07-08T06:00:00Z,28.8332,-90.8320,34.73,11111222 
WAVCIS,ioos:station:WAVCIS:CSI15:1,2009-07-08T07:00:00Z,28.8332,-90.8320,36.26,11111222 
WAVCIS,ioos:station:WAVCIS:CSI15:1,2009-07-08T08:00:00Z,28.8332,-90.8320,33.66,11111222 
WAVCIS,ioos:station:WAVCIS:CSI15:1,2009-07-08T09:00:00Z,28.8332,-90.8320,39.77,11111222 
WAVCIS,ioos:station:WAVCIS:CSI15:1,2009-07-08T10:00:00Z,28.8332,-90.8320,40.87,11111222 
WAVCIS,ioos:station:WAVCIS:CSI15:1,2009-07-08T11:00:00Z,28.8332,-90.8320,34.74,11111222 
WAVCIS,ioos:station:WAVCIS:CSI15:1,2009-07-08T12:00:00Z,28.8332,-90.8320,28.37,11111222 
WAVCIS,ioos:station:WAVCIS:CSI15:1,2009-07-08T13:00:00Z,28.8332,-90.8320,28.68,11111222 
WAVCIS,ioos:station:WAVCIS:CSI15:1,2009-07-08T14:00:00Z,28.8332,-90.8320,29.43,11111222 
WAVCIS,ioos:station:WAVCIS:CSI15:1,2009-07-08T15:00:00Z,28.8332,-90.8320,30.34,11111222 
WAVCIS,ioos:station:WAVCIS:CSI15:1,2009-07-08T16:00:00Z,28.8332,-90.8320,31.52,11111222 
WAVCIS,ioos:station:WAVCIS:CSI15:1,2009-07-08T17:00:00Z,28.8332,-90.8320,30.99,11111222 
WAVCIS,ioos:station:WAVCIS:CSI15:1,2009-07-08T18:00:00Z,28.8332,-90.8320,32.01,11111222 
WAVCIS,ioos:station:WAVCIS:CSI15:1,2009-07-08T19:00:00Z,28.8332,-90.8320,32.07,11111222 
WAVCIS,ioos:station:WAVCIS:CSI15:1,2009-07-08T20:00:00Z,28.8332,-90.8320,32.01,11111222 
WAVCIS,ioos:station:WAVCIS:CSI15:1,2009-07-08T21:00:00Z,28.8332,-90.8320,32.5,11111222 
WAVCIS,ioos:station:WAVCIS:CSI15:1,2009-07-08T22:00:00Z,28.8332,-90.8320,32.52,11111222 
WAVCIS,ioos:station:WAVCIS:CSI15:1,2009-07-08T23:00:00Z,28.8332,-90.8320,32.86,11111222 
WAVCIS,ioos:station:WAVCIS:CSI15:1,2009-07-09T00:00:00Z,28.8332,-90.8320,32.61,11111222 
WAVCIS,ioos:station:WAVCIS:CSI15:1,2009-07-09T01:00:00Z,28.8332,-90.8320,32.41,11111222 
WAVCIS,ioos:station:WAVCIS:CSI15:1,2009-07-09T02:00:00Z,28.8332,-90.8320,32.43,11111222 
WAVCIS,ioos:station:WAVCIS:CSI15:1,2009-07-09T03:00:00Z,28.8332,-90.8320,32.57,11111222 
WAVCIS,ioos:station:WAVCIS:CSI15:1,2009-07-09T04:00:00Z,28.8332,-90.8320,32.51,11111222 
WAVCIS,ioos:station:WAVCIS:CSI15:1,2009-07-09T05:00:00Z,28.8332,-90.8320,32.53,11111222 
WAVCIS,ioos:station:WAVCIS:CSI15:1,2009-07-09T06:00:00Z,28.8332,-90.8320,32.46,11111222 
WAVCIS,ioos:station:WAVCIS:CSI15:1,2009-07-09T07:00:00Z,28.8332,-90.8320,32.51,11111222 
WAVCIS,ioos:station:WAVCIS:CSI15:1,2009-07-09T08:00:00Z,28.8332,-90.8320,32.45,11111222 
WAVCIS,ioos:station:WAVCIS:CSI15:1,2009-07-09T09:00:00Z,28.8332,-90.8320,32.36,11111222 
WAVCIS,ioos:station:WAVCIS:CSI15:1,2009-07-09T10:00:00Z,28.8332,-90.8320,31.74,11111222 
WAVCIS,ioos:station:WAVCIS:CSI15:1,2009-07-09T11:00:00Z,28.8332,-90.8320,31.4,11111222 
WAVCIS,ioos:station:WAVCIS:CSI15:1,2009-07-09T12:00:00Z,28.8332,-90.8320,31.88,11111222 
WAVCIS,ioos:station:WAVCIS:CSI15:1,2009-07-09T13:00:00Z,28.8332,-90.8320,31.53,11111222 
WAVCIS,ioos:station:WAVCIS:CSI15:1,2009-07-09T14:00:00Z,28.8332,-90.8320,31.59,11111222 
WAVCIS,ioos:station:WAVCIS:CSI15:1,2009-07-09T15:00:00Z,28.8332,-90.8320,34.58,11111222 
WAVCIS,ioos:station:WAVCIS:CSI15:1,2009-07-09T16:00:00Z,28.8332,-90.8320,32.52,11111222 
WAVCIS,ioos:station:WAVCIS:CSI15:1,2009-07-09T17:00:00Z,28.8332,-90.8320,32.61,11111222 
WAVCIS,ioos:station:WAVCIS:CSI15:1,2009-07-09T18:00:00Z,28.8332,-90.8320,31.96,11111222 
WAVCIS,ioos:station:WAVCIS:CSI15:1,2009-07-09T19:00:00Z,28.8332,-90.8320,31.48,11111222 
WAVCIS,ioos:station:WAVCIS:CSI15:1,2009-07-09T20:00:00Z,28.8332,-90.8320,31.07,11111222 
WAVCIS,ioos:station:WAVCIS:CSI15:1,2009-07-09T21:00:00Z,28.8332,-90.8320,32.06,11111222 
WAVCIS,ioos:station:WAVCIS:CSI15:1,2009-07-09T22:00:00Z,28.8332,-90.8320,30.6,11111222 
WAVCIS,ioos:station:WAVCIS:CSI15:1,2009-07-09T23:00:00Z,28.8332,-90.8320,31.8,11111222 
WAVCIS,ioos:station:WAVCIS:CSI15:1,2009-07-10T00:00:00Z,28.8332,-90.8320,32.14,11111222 
WAVCIS,ioos:station:WAVCIS:CSI15:1,2009-07-10T01:00:00Z,28.8332,-90.8320,32.03,11111222 
WAVCIS,ioos:station:WAVCIS:CSI15:1,2009-07-10T02:00:00Z,28.8332,-90.8320,32.6,11111222 
WAVCIS,ioos:station:WAVCIS:CSI15:1,2009-07-10T03:00:00Z,28.8332,-90.8320,34.33,11111222 
WAVCIS,ioos:station:WAVCIS:CSI15:1,2009-07-10T04:00:00Z,28.8332,-90.8320,33.06,11111222 
WAVCIS,ioos:station:WAVCIS:CSI15:1,2009-07-10T05:00:00Z,28.8332,-90.8320,32.97,11111222 
WAVCIS,ioos:station:WAVCIS:CSI15:1,2009-07-10T06:00:00Z,28.8332,-90.8320,32.85,11111222 
WAVCIS,ioos:station:WAVCIS:CSI15:1,2009-07-10T07:00:00Z,28.8332,-90.8320,32.71,11111222 
WAVCIS,ioos:station:WAVCIS:CSI15:1,2009-07-10T08:00:00Z,28.8332,-90.8320,33.2,11111222 
WAVCIS,ioos:station:WAVCIS:CSI15:1,2009-07-10T09:00:00Z,28.8332,-90.8320,33.12,11111222 
WAVCIS,ioos:station:WAVCIS:CSI15:1,2009-07-10T10:00:00Z,28.8332,-90.8320,31.87,11111222 
WAVCIS,ioos:station:WAVCIS:CSI15:1,2009-07-10T11:00:00Z,28.8332,-90.8320,31.99,11111222 
WAVCIS,ioos:station:WAVCIS:CSI15:1,2009-07-10T12:00:00Z,28.8332,-90.8320,32.53,11111222 
WAVCIS,ioos:station:WAVCIS:CSI15:1,2009-07-10T13:00:00Z,28.8332,-90.8320,35.29,11111222 
WAVCIS,ioos:station:WAVCIS:CSI15:1,2009-07-10T14:00:00Z,28.8332,-90.8320,33.12,11111222 
WAVCIS,ioos:station:WAVCIS:CSI15:1,2009-07-10T15:00:00Z,28.8332,-90.8320,32.81,11111222 
WAVCIS,ioos:station:WAVCIS:CSI15:1,2009-07-10T16:00:00Z,28.8332,-90.8320,32.73,11111222 
WAVCIS,ioos:station:WAVCIS:CSI15:1,2009-07-10T17:00:00Z,28.8332,-90.8320,32.63,11111222 
WAVCIS,ioos:station:WAVCIS:CSI15:1,2009-07-10T18:00:00Z,28.8332,-90.8320,32.81,11111222 
WAVCIS,ioos:station:WAVCIS:CSI15:1,2009-07-10T19:00:00Z,28.8332,-90.8320,33.05,11111222 
WAVCIS,ioos:station:WAVCIS:CSI15:1,2009-07-10T20:00:00Z,28.8332,-90.8320,32.14,11111222 
WAVCIS,ioos:station:WAVCIS:CSI15:1,2009-07-10T21:00:00Z,28.8332,-90.8320,31.04,11111222 
WAVCIS,ioos:station:WAVCIS:CSI15:1,2009-07-10T22:00:00Z,28.8332,-90.8320,32.41,11111222 
WAVCIS,ioos:station:WAVCIS:CSI15:1,2009-07-10T23:00:00Z,28.8332,-90.8320,32.88,11111222 
WAVCIS,ioos:station:WAVCIS:CSI15:1,2009-07-11T00:00:00Z,28.8332,-90.8320,32.7,11111222 
WAVCIS,ioos:station:WAVCIS:CSI15:1,2009-07-11T01:00:00Z,28.8332,-90.8320,32.37,11111222 
WAVCIS,ioos:station:WAVCIS:CSI15:1,2009-07-11T02:00:00Z,28.8332,-90.8320,32.49,11111222 
WAVCIS,ioos:station:WAVCIS:CSI15:1,2009-07-11T03:00:00Z,28.8332,-90.8320,32.44,11111222 
WAVCIS,ioos:station:WAVCIS:CSI15:1,2009-07-11T04:00:00Z,28.8332,-90.8320,32.53,11111222 
WAVCIS,ioos:station:WAVCIS:CSI15:1,2009-07-11T05:00:00Z,28.8332,-90.8320,32.27,11111222 
WAVCIS,ioos:station:WAVCIS:CSI15:1,2009-07-11T06:00:00Z,28.8332,-90.8320,32.16,11111222 
WAVCIS,ioos:station:WAVCIS:CSI15:1,2009-07-11T07:00:00Z,28.8332,-90.8320,32.11,11111222 
WAVCIS,ioos:station:WAVCIS:CSI15:1,2009-07-11T08:00:00Z,28.8332,-90.8320,32.12,11111222 
WAVCIS,ioos:station:WAVCIS:CSI15:1,2009-07-11T09:00:00Z,28.8332,-90.8320,32.15,11111222 
WAVCIS,ioos:station:WAVCIS:CSI15:1,2009-07-11T10:00:00Z,28.8332,-90.8320,32.06,11111222 
WAVCIS,ioos:station:WAVCIS:CSI15:1,2009-07-11T11:00:00Z,28.8332,-90.8320,32.0,11111222 
WAVCIS,ioos:station:WAVCIS:CSI15:1,2009-07-11T12:00:00Z,28.8332,-90.8320,32.54,11111222 
WAVCIS,ioos:station:WAVCIS:CSI15:1,2009-07-11T13:00:00Z,28.8332,-90.8320,32.61,11111222 
WAVCIS,ioos:station:WAVCIS:CSI15:1,2009-07-11T14:00:00Z,28.8332,-90.8320,32.66,11111222 
WAVCIS,ioos:station:WAVCIS:CSI15:1,2009-07-11T15:00:00Z,28.8332,-90.8320,32.86,11111222 
WAVCIS,ioos:station:WAVCIS:CSI15:1,2009-07-11T16:00:00Z,28.8332,-90.8320,32.89,11111222 
WAVCIS,ioos:station:WAVCIS:CSI15:1,2009-07-11T17:00:00Z,28.8332,-90.8320,32.86,11111222 
WAVCIS,ioos:station:WAVCIS:CSI15:1,2009-07-11T18:00:00Z,28.8332,-90.8320,32.81,11111222 
WAVCIS,ioos:station:WAVCIS:CSI15:1,2009-07-11T19:00:00Z,28.8332,-90.8320,33.01,11111222 
WAVCIS,ioos:station:WAVCIS:CSI15:1,2009-07-11T20:00:00Z,28.8332,-90.8320,33.25,11111222 
WAVCIS,ioos:station:WAVCIS:CSI15:1,2009-07-11T21:00:00Z,28.8332,-90.8320,33.19,11111222 
WAVCIS,ioos:station:WAVCIS:CSI15:1,2009-07-11T22:00:00Z,28.8332,-90.8320,33.57,11111222 
WAVCIS,ioos:station:WAVCIS:CSI15:1,2009-07-11T23:00:00Z,28.8332,-90.8320,34.14,11111222 
WAVCIS,ioos:station:WAVCIS:CSI15:1,2009-07-12T00:00:00Z,28.8332,-90.8320,33.43,11111222 
WAVCIS,ioos:station:WAVCIS:CSI15:1,2009-07-12T01:00:00Z,28.8332,-90.8320,33.15,11111222 
WAVCIS,ioos:station:WAVCIS:CSI15:1,2009-07-12T02:00:00Z,28.8332,-90.8320,44.69,11133222 
WAVCIS,ioos:station:WAVCIS:CSI15:1,2009-07-12T03:00:00Z,28.8332,-90.8320,37.39,11111222 
WAVCIS,ioos:station:WAVCIS:CSI15:1,2009-07-12T04:00:00Z,28.8332,-90.8320,44.06,11133222 